Regional Weather Roundup
Issued by NWS Wakefield, VA

Home | Current Version | Previous Version | Graphics & Text | Print | Product List | Glossary On
Versions: 1 2 3 4 5 6 7 8 9 10 11 12 13 14 15 16 17 18 19 20 21 22 23 24 25 26 27 28 29 30 31 32 33 34 35 36 37 38 39 40 41 42 43 44 45 46 47 48 49 50
000
ASUS41 KAKQ 152210
RWRAKQ

REGIONAL WEATHER ROUNDUP
NATIONAL WEATHER SERVICE WAKEFIELD VA
600 PM EDT MON SEP 15 2014

Note: "fair" indicates few or no clouds below 12,000 feet with no
significant weather and/or obstructions to visibility. * = Denotes
station may not report precipitation (e.g., rain,snow,etc.),
thunder or fog.

VAZ042-051-052>054-056-152300-
NORTHERN VIRGINIA

CITY           SKY/WX    TMP DP  RH WIND       PRES   REMARKS
WASH NATIONAL  PTSUNNY   75  51  43 SW9       30.13S
DULLES         PTSUNNY   72  52  49 SW5       30.12F
FORT BELVOIR   MOSUNNY   70  60  70 SE2       30.13S
QUANTICO       MOSUNNY   73  54  51 CALM      30.13S
FREDERICKSBRG* MOSUNNY   75  57  53 SW3       30.11F
STAFFORD*      MOSUNNY   72  58  61 CALM      30.16S
WARRENTON      MOSUNNY   74  62  64 S5        30.11F
CULPEPER*      PTSUNNY  N/A N/A N/A S5        30.12F
MANASSAS*      NOT AVBL
LEESBURG*      MOSUNNY   73  55  53 S5        30.13F
WINCHESTER     MOSUNNY   70  54  56 SE8       30.11F
FRONT ROYAL*   MOCLDY    72  55  56 SE5       30.09F
LURAY*         MOCLDY    75  55  50 S5        30.10F
$$

VAZ048-049-060>072-079>083-152300-
CENTRAL AND SOUTH CENTRAL VIRGINIA...AND NORTH CENTRAL NORTH CAROLINA

CITY           SKY/WX    TMP DP  RH WIND       PRES   REMARKS
RICHMOND       CLOUDY    74  57  55 S9        30.12F
CHESTERFIELD*  CLOUDY   N/A N/A N/A S5        30.13F
PETERSBURG*    CLOUDY    70  60  69 CALM      30.13F
HANOVER        CLOUDY    71  63  75 CALM      30.14S
TAPPAHANNOCK*  CLOUDY    72  58  61 SE3       30.13F
CHARLOTTSVILLE PTSUNNY   73  57  57 S5        30.11F
ORANGE*        PTSUNNY   72  55  56 E3        30.12F
LOUISA*        MOSUNNY   73  59  60 CALM      30.11F
FARMVILLE*     CLOUDY    73  61  64 S5        30.11S
CREWE*         CLOUDY    73  64  72 SE6       30.13S
FORT PICKETT*  CLOUDY    70  62  76 SE6       30.13F
LUNENBURG*     CLOUDY    70  64  81 CALM      30.13F
SOUTH HILL*    CLOUDY    72  64  78 S3        30.18F
LAWRENCEVILLE* CLOUDY    70  64  81 CALM      30.13F
ROANOKE RAPIDS CLOUDY    70  63  78 CALM      30.14F
RALEIGH        CLOUDY    71  64  78 S5        30.14F
$$

VAZ088>098-152300-
SOUTHEAST VIRGINIA

CITY           SKY/WX    TMP DP  RH WIND       PRES   REMARKS
NORFOLK        CLOUDY    70  57  63 SE6       30.14F
VIRGINIA BEACH CLOUDY    69  57  65 SE7       30.14F
NORFOLK NAVAL  CLOUDY    71  58  63 SE6       30.15F
WEST POINT*    NOT AVBL
NEWPORT NEWS   CLOUDY    74  60  61 E7        30.14S
LANGLEY AFB    CLOUDY    70  59  67 SE6       30.13F
FORT EUSTIS    CLOUDY    71  57  59 SE6       30.12F
WILLIAMSBURG*  CLOUDY    73  63  68 S3        30.14F
HR EXEC AP*    CLOUDY    70  59  68 SE6       30.16F
FRANKLIN*        N/A     72  63  73 CALM      30.14S
WAKEFIELD      CLOUDY    72  62  71 CALM      30.13F
$$

VAZ020-022-025-037-045-152300-
WEST CENTRAL AND SOUTHWEST VIRGINIA

CITY           SKY/WX    TMP DP  RH WIND       PRES   REMARKS
STAUNTON*      PTSUNNY   72  56  57 SE8       30.12F
HOT SPRINGS VA CLOUDY    59  55  87 S3        30.22S
LYNCHBURG      PTSUNNY   71  62  73 S6        30.14S
DANVILLE       CLOUDY    73  64  73 VRB3      30.13F
SOUTH BOSTON*  NOT AVBL
MARTINSVILLE   CLOUDY    72  64  78 W5        30.16S
ROANOKE        CLOUDY    71  62  73 SE10      30.14F
BLACKSBURG     CLOUDY    70  66  88 SE6       30.17S
DUBLIN*        PTSUNNY   72  65  79 S8        30.16F
MARION*        PTSUNNY   70  62  74 W8        30.20S
HILLSVILLE*    CLOUDY    63  61  93 S6        30.20R
RICHLANDS*     CLOUDY    71  63  74 W8        30.19S
WISE*          CLOUDY    68  59  73 SW3       30.20F
ABINGDON*      CLOUDY    72  65  77 W3        30.18S
$$

MDZ021>025-VAZ099-100-152300-
SOUTHERN MARYLAND AND THE DELMARVA PENINSULA

CITY           SKY/WX    TMP DP  RH WIND       PRES   REMARKS
PATUXENT RIVER PTSUNNY   70  55  59 SE8       30.13F
BAY BRIDGE APT   N/A     70  50  49 SE3       30.14S
LEONARDTOWN    PTSUNNY   68  54  60 E5        30.14F
DOVER          SUNNY     70  51  52 NE7       30.11F
GEORGETOWN     SUNNY     70  51  51 E13       30.14S
EASTON         PTSUNNY   72  54  53 CALM      30.17F
CAMBRIDGE      MOSUNNY   72  50  46 CALM      30.13F
SALISBURY        N/A    N/A N/A N/A MISG        N/A
OCEAN CITY     SUNNY     69  52  54 SE5       30.15S
WALLOPS ISLAND SUNNY     70  56  61 S7        30.15S
ACCOMACK*      PTSUNNY   68  55  64 CALM      30.15S
$$

NCZ012>017-030>032-152300-
EASTERN NORTH CAROLINA

CITY           SKY/WX    TMP DP  RH WIND       PRES   REMARKS
ELIZABETH CITY CLOUDY    70  60  70 E6        30.14F
AHOSKIE*       CLOUDY    70  65  82 CALM      30.14F
EDENTON*       LGT RAIN  73  65  76 CALM      30.13F
CURRITUCK*     CLOUDY    71  58  63 E3        30.15F
KILL DEVIL HLS CLOUDY    72  59  64 E5        30.13F
MANTEO         CLOUDY    71  59  65 NE8       30.14F
CAPE HATTERAS  SUNNY     73  63  70 NE5       30.13F
TARBORO*       CLOUDY    73  65  75 CALM      30.14F
GOLDSBORO      CLOUDY    74  69  82 SE3       30.11F
WASHINGTON     PTSUNNY   73  64  73 CALM      30.14S
GREENVILLE     CLOUDY    73  64  73 CALM      30.14F
NEW BERN       PTSUNNY   76  65  68 E3        30.14S
WILMINGTON     MOSUNNY   75  67  76 E6        30.12F
$$

VAZ048-152300-
ELSEWHERE

CITY           SKY/WX    TMP DP  RH WIND       PRES   REMARKS
HARRISBURG PA  PTSUNNY   69  54  58 CALM      30.10F
BALTIMORE      PTSUNNY   69  53  56 SE7       30.13S
ANNAPOLIS      MOSUNNY   69  53  56 SE8       30.13F
ANDREWS AFB    MOSUNNY   72  54  53 SW6       30.12F
WILMINGTON DE  MOSUNNY   70  50  49 S8        30.13F
PHILADELPHIA   MOSUNNY   71  47  42 SW8       30.13S
WILDWOOD NJ*   SUNNY     68  46  45 CALM      30.15S
ATLANTIC CITY  PTSUNNY   66  55  67 SE6       30.14F
HENDERSON NC   CLOUDY    70  62  75 SE3       30.14F
GREENSBORO     CLOUDY    72  64  76 SE7       30.14S
ROCKY MOUNT    CLOUDY    71  66  84 E3        30.13F
FAYETTEVILLE   CLOUDY    75  67  76 SE6       30.12F
CHARLOTTE      CLOUDY    75  64  68 CALM      30.15S
$$

VAZ100-152300-
MARINE

STATION/POSITION TIME  TEMP    WIND        PRES    WAVE   SWELL
                       AIR SEA DIR/SP/G            HT/PER HT/PER
                 (UTC) (F)     (DEG/KT/KT) (MB)    (FT/S) (FT/S)
44066 TX TWR #4  2200   65 75   20/ 12/ 14 1020.1F   2/ 7   2/ 7
CAPE MAY NJ      2200   69 76  350/  1/  3 1020.1S
LEWES DE         2200   69 72   30/  7/  8 1020.3F
15NM E FENWICK I 2200   67 73              1020.4F   2/ 7
OCEAN-CITY-INLET 2200   69 72   90/  4/  5 1020.6R
WACHAPREAGUE VA  2200   69 75  140/  4/  5 1021.0S
THOMAS POINT MD  2200   69 76  150/  4/  6 1021.3F
GOOSES REEF MD   2200   70     140/  4/  6 1020.9F
COVE POINT MD    2200   69     170/  8/ 10 1020.3F
SOLOMONS ISLAND  2200      77                N/A
BISHOPS HEAD MD  2200   70 75  160/  5/  7 1020.2S
PINEY POINT MD   2200          160/ 11/ 12   N/A
POTOMAC MD       2200   70     140/  8/ 12 1020.0S
CAMBRIDGE MD     2200   72 75   50/  3/  3 1020.0F
LEWISETTA VA     2200   70 75  150/  7/  8 1020.0S
RAPPAHANNOCK LGT 2200          120/  8/  9 1021.1F
STINGRAY PT      2200   71     170/  8/ 10   N/A
YORK RVR RNG VA  2200   70     150/  9/ 11 1020.2S
YORKTOWN VA      2200   71 78  140/  8/ 11 1020.1F
JAMESTOWN VA     2200   71     220/  6/  8   N/A
DOMINION TERM VA 2200   71     160/  9/ 10 1020.7R
KIPTOPEKE VA     2200      79  140/  5/  8   N/A
CHES BAY BRIDGE  2200   70 76  100/  5/ 10 1020.3S
CAPE HENRY VA    2200   69     100/  7/  9 1019.7S
CHESAPEAKE LGHT  2100   68     100/  6/  7 1021.8F
WILLOUBY STN VA  2200   70     100/  3/  6 1019.4S
S CRANEY ISL VA  2200          200/  2/  4 1020.5R
CAPE HENRY BUOY  2200      76                N/A     2/13
1ST LANDING BUOY 2200   70     130/  8/ 12 1020.5S
CAPE CHARLES BUO 2200      76                N/A     2/ 8   2/ 8
OFFSHORE WE BUOY 2200      75                N/A     2/ 8   2/ 8
64NM E OF VA BCH 2200   71 79   40/  8/ 12 1020.4F   2/ 8   2/ 8
DUCK PIER NC     2200   71 76   70/  5/  6 1019.9F
44100 DUCK FRF   2200      75                N/A     3/ 8
44056 DUCK FRF   2200                        N/A     2/13
OREGON INLET NC  2200   72 74   30/  6/  9 1020.6S
HATTERAS NC      2200   74 77   50/  7/ 11 1020.7S
DIAMOND SHLS NC  2200   74     350/ 10/ 12 1019.9F   4/ 8   3/ 8
CAPE LOOKOUT NC  2100   75      50/  7/  9 1020.4F
$$


USA.gov is the U.S. government's official web portal to all federal, state and local government web resources and services.